Truckee-Tahoe, CA

2:16 AM PDT on June 25, 2017 (GMT -0700)
Truckee-Tahoe

Weather History for KTRK - June, 2014

Change the Weather History Date:

Monday, June 16, 2014

  Actual Average Record
Temperature  
Mean Temperature 48 °F -  
Max Temperature 62 °F 74 °F 90 °F (1951)
Min Temperature 35 °F 37 °F 26 °F (2002)
Degree Days  
Heating Degree Days 16    
Moisture  
Dew Point 27 °F    
Average Humidity 43    
Maximum Humidity 65    
Minimum Humidity 16    
Precipitation  
Precipitation 0.00 in - - ()
Sea Level Pressure  
Sea Level Pressure 29.91 in    
Wind  
Wind Speed 9 mph (SW)    
Max Wind Speed 29 mph    
Max Gust Speed 38 mph    
Visibility 10 miles    
Events      
Averages and records for this station are not official NWS values.
T = Trace of Precipitation, MM = Missing Value Source: NWS Daily Summary

Daily Weather History Graph

Daily Weather History Graph

Search for Another Location

Airport or City:

Trip Planner

Search our weather history database for the weather conditions in past years. The results will help you decide how hot, cold, wet, or windy it might be!

Date:

Astronomy

Jun. 16, 2014 Rise Set
Actual Time 5:33 AM PDT 8:29 PM PDT
Civil Twilight 5:01 AM PDT 9:01 PM PDT
Nautical Twilight 4:20 AM PDT 9:42 PM PDT
Astronomical Twilight 3:33 AM PDT 10:29 PM PDT
Moon 11:25 PM PDT (6/16) 9:42 AM PDT (6/16)
Length of Visible Light 16h 00m
Length of Day
14h 55m
Waning Gibbous, 82% of the Moon is Illuminated
Jun 16
Waning Gibbous
Jun 19
Last Quarter
Jun 27
New
Jul 5
First Quarter
Jul 12
Full

Hourly Weather History & Observations

Time (PDT) Temp. Windchill Dew Point Humidity Pressure Visibility Wind Dir Wind Speed Gust Speed Precip Events Conditions
12:15 AM 51.8 °F - 32.0 °F 47% 29.91 in 10.0 mi East 3.5 mph - N/A   Overcast
12:35 AM 51.8 °F - 32.0 °F 47% 29.90 in 10.0 mi WSW 3.5 mph - N/A   Scattered Clouds
12:55 AM 53.6 °F - 32.0 °F 44% 29.89 in 10.0 mi SW 9.2 mph - N/A   Clear
1:15 AM 51.8 °F - 32.0 °F 47% 29.89 in 10.0 mi SSW 8.1 mph - N/A   Clear
1:35 AM 51.8 °F - 32.0 °F 47% 29.88 in 10.0 mi SW 11.5 mph 17.3 mph N/A   Clear
1:55 AM 51.8 °F - 32.0 °F 47% 29.88 in 10.0 mi SSW 9.2 mph - N/A   Clear
2:15 AM 51.8 °F - 32.0 °F 47% 29.88 in 10.0 mi SSW 4.6 mph 16.1 mph N/A   Clear
2:35 AM 51.8 °F - 32.0 °F 47% 29.88 in 10.0 mi SW 10.4 mph 19.6 mph N/A   Clear
2:55 AM 51.8 °F - 32.0 °F 47% 29.86 in 10.0 mi SW 9.2 mph - N/A   Scattered Clouds
3:15 AM 51.8 °F - 32.0 °F 47% 29.86 in 10.0 mi SSW 11.5 mph 16.1 mph N/A   Clear
3:35 AM 51.8 °F - 32.0 °F 47% 29.86 in 10.0 mi South 6.9 mph 17.3 mph N/A   Clear
3:55 AM 51.8 °F - 30.2 °F 44% 29.86 in 10.0 mi SSW 9.2 mph 16.1 mph N/A   Clear
4:15 AM 50.0 °F - 30.2 °F 47% 29.86 in 10.0 mi SSW 9.2 mph 17.3 mph N/A   Clear
4:35 AM 50.0 °F - 30.2 °F 47% 29.86 in 10.0 mi SSW 8.1 mph - N/A   Clear
4:55 AM 50.0 °F - 28.4 °F 43% 29.86 in 10.0 mi South 8.1 mph - N/A   Clear
5:15 AM 48.2 °F - 28.4 °F 46% 29.86 in 10.0 mi South 11.5 mph 18.4 mph N/A   Clear
5:35 AM 50.0 °F - 26.6 °F 40% 29.86 in 10.0 mi South 9.2 mph - N/A   Clear
5:55 AM 46.4 °F - 28.4 °F 50% 29.86 in 10.0 mi Calm Calm - N/A   Clear
6:15 AM 44.6 °F - 28.4 °F 53% 29.87 in 10.0 mi Calm Calm - N/A   Clear
6:35 AM 42.8 °F 40.1 °F 30.2 °F 61% 29.88 in 10.0 mi NNW 4.6 mph - N/A   Clear
6:45 AM 48.2 °F - 32.0 °F 54% 29.88 in 10.0 mi North 4.6 mph - N/A   Scattered Clouds
7:55 AM 51.8 °F - 17.6 °F 26% 29.88 in 10.0 mi South 19.6 mph 24.2 mph N/A   Scattered Clouds
8:55 AM 55.4 °F - 17.6 °F 23% 29.88 in 10.0 mi SSW 6.9 mph 18.4 mph N/A   Scattered Clouds
9:55 AM 60.8 °F - 15.8 °F 17% 29.88 in 10.0 mi SSW 16.1 mph 25.3 mph N/A   Scattered Clouds
10:45 AM 60.8 °F - 14.0 °F 16% 29.89 in 10.0 mi SSW 17.3 mph 25.3 mph N/A   Scattered Clouds
11:45 AM 60.8 °F - 19.4 °F 20% 29.90 in 10.0 mi SSW 21.9 mph 38.0 mph N/A   Scattered Clouds
12:45 PM 60.8 °F - 24.8 °F 25% 29.88 in 10.0 mi SW 20.7 mph 35.7 mph N/A   Partly Cloudy
1:45 PM 60.8 °F - 30.2 °F 31% 29.88 in 10.0 mi SW 19.6 mph 38.0 mph N/A   Scattered Clouds
2:55 PM 62.6 °F - 32.0 °F 32% 29.88 in 10.0 mi WSW 19.6 mph 36.8 mph N/A   Scattered Clouds
3:45 PM 60.8 °F - 33.8 °F 36% 29.90 in 10.0 mi WSW 20.7 mph 31.1 mph N/A   Scattered Clouds
4:45 PM 59.0 °F - 32.0 °F 36% 29.91 in 10.0 mi WSW 28.8 mph 33.4 mph N/A   Mostly Cloudy
5:45 PM 55.4 °F - 28.4 °F 36% 29.92 in 10.0 mi WSW 20.7 mph 35.7 mph N/A   Partly Cloudy
6:15 PM 53.6 °F - 26.6 °F 35% 29.93 in 10.0 mi WSW 25.3 mph 34.5 mph N/A   Clear
6:35 PM 53.6 °F - 26.6 °F 35% 29.92 in 10.0 mi WSW 16.1 mph 29.9 mph N/A   Clear
6:55 PM 53.6 °F - 28.4 °F 38% 29.93 in 10.0 mi WSW 17.3 mph 26.5 mph N/A   Clear
7:15 PM 51.8 °F - 28.4 °F 41% 29.94 in 10.0 mi SW 19.6 mph 27.6 mph N/A   Clear
7:35 PM 51.8 °F - 24.8 °F 35% 29.94 in 10.0 mi WSW 16.1 mph 26.5 mph N/A   Clear
7:55 PM 50.0 °F - 23.0 °F 35% 29.94 in 10.0 mi WSW 17.3 mph 20.7 mph N/A   Clear
8:15 PM 50.0 °F - 23.0 °F 35% 29.94 in 10.0 mi WSW 12.7 mph 18.4 mph N/A   Clear
8:35 PM 46.4 °F 44.3 °F 24.8 °F 43% 29.95 in 10.0 mi SW 4.6 mph - N/A   Clear
8:55 PM 46.4 °F 45.2 °F 24.8 °F 43% 29.96 in 10.0 mi WSW 3.5 mph - N/A   Clear
9:15 PM 46.4 °F 45.2 °F 26.6 °F 46% 29.97 in 10.0 mi West 3.5 mph - N/A   Clear
9:35 PM 44.6 °F - 26.6 °F 49% 29.97 in 10.0 mi Calm Calm - N/A   Clear
9:55 PM 44.6 °F - 26.6 °F 49% 29.97 in 10.0 mi Calm Calm - N/A   Clear
10:15 PM 44.6 °F - 26.6 °F 49% 29.97 in 10.0 mi Calm Calm - N/A   Clear
10:35 PM 37.4 °F - 23.0 °F 56% 29.97 in 10.0 mi Calm Calm - N/A   Clear
10:55 PM 35.6 °F 32.8 °F 23.0 °F 60% 29.96 in 10.0 mi ESE 3.5 mph - N/A   Clear
11:15 PM 37.4 °F - 26.6 °F 65% 29.96 in 10.0 mi Calm Calm - N/A   Clear
11:35 PM 41.0 °F - 26.6 °F 57% 29.96 in 10.0 mi Calm Calm - N/A   Clear
11:55 PM 35.6 °F - 24.8 °F 65% 29.96 in 10.0 mi Calm Calm - N/A   Clear